Weather History for Rome, OR

Change the Weather History Date:

Thursday, March 6, 2014

  Actual Average Record
Temperature  
Mean Temperature 46 °F 38 °F  
Max Temperature 57 °F 51 °F 63 °F (1954)
Min Temperature 35 °F 25 °F 16 °F (1955)
Degree Days  
Heating Degree Days 19 27  
Month to date heating degree days 111 166  
Since 1 July heating degree days 4533 4900  
Cooling Degree Days 0 0  
Month to date cooling degree days 0 0  
Year to date cooling degree days 0 0  
Moisture  
Dew Point 31 °F    
Average Humidity 53    
Maximum Humidity 76    
Minimum Humidity 30    
Precipitation  
Precipitation 0.00 in 0.02 in 0.66 in (1987)
Month to date precipitation 0.07 0.14  
Year to date precipitation 0.82 1.55  
Sea Level Pressure  
Sea Level Pressure 29.91 in    
Wind  
Wind Speed 16 mph (SW)    
Max Wind Speed 30 mph    
Max Gust Speed 40 mph    
T = Trace of Precipitation, MM = Missing Value Source: NWS Daily Summary

Daily Weather History Graph

Daily Weather History Graph

Search for Another Location

Airport:

Trip Planner

Search our weather history database for the weather conditions in past years. The results will help you decide how hot, cold, wet, or windy it might be!

Date:

Astronomy

Mar. 06, 2014 Rise Set
Actual Time 6:18 AM PST 5:47 PM PST
Civil Twilight 5:50 AM PST 6:15 PM PST
Nautical Twilight 5:17 AM PST 6:48 PM PST
Astronomical Twilight 4:45 AM PST 7:21 PM PST
Moon 9:22 AM PST (3/6) No Moon Set
Length of Visible Light 12h 25m
Length of Day
11h 28m
Waxing Crescent, 33% of the Moon is Illuminated
Mar 6
Waxing Crescent
Mar 8
First Quarter
Mar 16
Full
Mar 23
Last Quarter
Mar 30
New

Hourly Weather History & Observations

Time (PST) Temp. Windchill Dew Point Humidity Pressure Visibility Wind Dir Wind Speed Gust Speed Precip Events Conditions
12:52 AM 55.0 °F - 39.9 °F 57% 29.75 in - South 12.7 mph - N/A   Unknown
1:52 AM 55.0 °F - 39.9 °F 57% 29.75 in - SSW 21.9 mph 32.2 mph N/A   Unknown
2:52 AM 52.0 °F - 39.0 °F 61% 29.75 in - South 12.7 mph - N/A   Unknown
3:52 AM 52.0 °F - 37.9 °F 59% 29.75 in - South 10.4 mph - N/A   Unknown
4:52 AM 53.1 °F - 37.0 °F 55% 29.78 in - WSW 17.3 mph 32.2 mph N/A   Unknown
5:52 AM 48.0 °F - 37.9 °F 68% 29.82 in - SSW 8.1 mph - N/A   Unknown
6:52 AM 44.1 °F 38.6 °F 37.0 °F 76% 29.84 in - SSE 10.4 mph - N/A   Unknown
7:52 AM 51.1 °F - 36.0 °F 56% 29.83 in - SSW 18.4 mph 26.5 mph N/A   Unknown
8:52 AM 52.0 °F - 28.9 °F 41% 29.85 in - SW 23.0 mph 33.4 mph N/A   Unknown
9:52 AM 52.0 °F - 24.1 °F 34% 29.89 in - SW 20.7 mph 34.5 mph N/A   Unknown
10:52 AM 54.0 °F - 26.1 °F 34% 29.91 in - SW 24.2 mph 31.1 mph N/A   Unknown
11:52 AM 55.9 °F - 24.1 °F 29% 29.90 in - SW 23.0 mph 33.4 mph N/A   Unknown
12:52 PM 55.0 °F - 28.0 °F 35% 29.89 in - South 21.9 mph 33.4 mph N/A   Unknown
1:38 PM 53.1 °F - 26.1 °F 35% 29.90 in - WSW 18.4 mph 32.2 mph N/A   Unknown
1:52 PM 53.1 °F - 28.0 °F 38% 29.90 in - West 19.6 mph 27.6 mph N/A   Unknown
2:52 PM 51.1 °F - 28.9 °F 43% 29.92 in - WSW 21.9 mph 33.4 mph N/A   Unknown
3:52 PM 52.0 °F - 28.9 °F 41% 29.92 in - SW 19.6 mph 25.3 mph N/A   Unknown
4:52 PM 51.1 °F - 28.0 °F 41% 29.93 in - SW 19.6 mph 27.6 mph N/A   Unknown
5:52 PM 46.9 °F - 26.1 °F 44% 29.96 in - SSW 4.6 mph - N/A   Unknown
6:52 PM 46.9 °F - 26.1 °F 44% 30.00 in - West 11.5 mph - N/A   Unknown
7:52 PM 45.0 °F 39.3 °F 28.9 °F 53% 30.05 in - West 11.5 mph - N/A   Unknown
8:52 PM 43.0 °F 39.5 °F 28.0 °F 56% 30.07 in - West 5.8 mph - N/A   Unknown
9:52 PM 41.0 °F 36.4 °F 28.0 °F 60% 30.09 in - SSW 6.9 mph - N/A   Unknown
10:52 PM 37.9 °F 32.1 °F 28.9 °F 70% 30.11 in - WSW 8.1 mph - N/A   Unknown
11:52 PM 36.0 °F 31.1 °F 28.0 °F 73% 30.13 in - SSW 5.8 mph - N/A   Unknown